Regional Weather Roundup
Issued by NWS

Home | Current Version | Previous Version | Graphics & Text | Print | Product List | Glossary On
Versions: 1 2 3 4 5 6 7 8 9 10 11 12 13 14 15 16 17 18 19 20 21 22 23 24 25 26 27 28 29 30 31 32 33 34 35 36 37 38 39 40 41 42 43 44 45 46 47 48 49 50
000
ASUS43 KBIS 222110
RWRND

NORTH DAKOTA REGIONAL WEATHER ROUNDUP
NATIONAL WEATHER SERVICE BISMARCK ND
400 PM CDT FRI JUL 22 2016

NOTE: "FAIR" INDICATES FEW OR NO CLOUDS BELOW 12,000 FEET WITH NO
SIGNIFICANT WEATHER AND/OR OBSTRUCTIONS TO VISIBILITY.


NDZ001>003-009>011-017-222200-
NORTHWEST NORTH DAKOTA

CITY           SKY/WX    TMP DP  RH WIND       PRES   REMARKS
WILLISTON      MOSUNNY   93  55  27 SE15G21   29.97F HX  91
MINOT          CLOUDY    87  59  38 E14       30.01F
MINOT AFB      CLOUDY    83  60  45 NE13      30.01S
$$

NDZ018>021-031>035-040>046-222200-
SOUTHWEST NORTH DAKOTA

CITY           SKY/WX    TMP DP  RH WIND       PRES   REMARKS
BISMARCK       CLOUDY    86  76  71 SE15      29.99F HX  96
DICKINSON      CLOUDY    87  72  60 E22G32    29.97F HX  93
GARRISON         N/A     85  60  42 E16G24    30.00F
HETTINGER ARPT CLOUDY    95  70  44 E17       29.97F HX 101
$$

NDZ004>008-012>016-024-026-027-054-222200-
NORTHEAST NORTH DAKOTA

CITY           SKY/WX    TMP DP  RH WIND       PRES   REMARKS
GRAND FORKS    CLOUDY    87  64  46 NE8       30.02F
GRND FRKS AFB  CLOUDY    85  63  47 NE6       30.04F
DEVILS LAKE    MOSUNNY   81  62  52 NE8       30.05F
$$

NDZ022-023-025-028>030-036>039-047>053-222200-
SOUTHEAST NORTH DAKOTA

CITY           SKY/WX    TMP DP  RH WIND       PRES   REMARKS
FARGO          CLOUDY    90  66  45 NW3       29.99F HX  92
JAMESTOWN      CLOUDY    86  73  65 E10       30.01F HX  93
$$





USA.gov is the U.S. government's official web portal to all federal, state and local government web resources and services.